FW6665 Weather Reports


time (UTC)temp
C
wind
direction
speed
KPH
gust
KPH
rain 1hr
cm
rain 24hr
cm
rain mn
cm
humidity
%
barometer
mb
20260906163704 23 197 1.6 11.3 0.00 0.00 0.00 49 1016.5
20260906162714 23 85 4.8 11.3 0.00 0.00 0.00 48 1016.5
20260906162204 23 72 3.2 16.1 0.00 0.00 0.00 48 1016.6
20260906161706 24 200 4.8 16.1 0.00 0.00 0.00 47 1016.4
20260906161207 24 140 3.2 16.1 0.00 0.00 0.00 46 1016.6
20260906160204 25 135 3.2 17.7 0.00 0.00 0.00 45 1016.5
20260906155704 25 123 3.2 17.7 0.00 0.00 0.00 43 1016.5
20260906154704 25 85 4.8 16.1 0.00 0.00 0.00 41 1016.5
20260906154204 26 93 6.4 16.1 0.00 0.00 0.00 40 1016.5
20260906153233 26 134 4.8 9.7 0.00 0.00 0.00 39 1016.5
20260906152704 26 175 3.2 9.7 0.00 0.00 0.00 40 1016.5
20260906152204 25 214 1.6 9.7 0.00 0.00 0.00 42 1016.5
20260906151705 25 89 3.2 11.3 0.00 0.00 0.00 43 1016.6
20260906151207 25 158 1.6 11.3 0.00 0.00 0.00 42 1016.7
20260906150703 25 145 3.2 14.5 0.00 0.00 0.00 42 1016.6
20260906150204 25 145 3.2 16.1 0.00 0.00 0.00 42 1016.7
20260906145704 25 89 3.2 16.1 0.00 0.00 0.00 41 1016.7
20260906145204 25 183 4.8 16.1 0.00 0.00 0.00 40 1016.8
20260906144704 26 90 6.4 14.5 0.00 0.00 0.00 39 1017.0
20260906144204 26 185 3.2 14.5 0.00 0.00 0.00 39 1017.0
20260906143704 26 82 4.8 14.5 0.00 0.00 0.00 39 1017.0
20260906143204 26 178 4.8 16.1 0.00 0.00 0.00 39 1017.1
20260906142704 26 107 3.2 16.1 0.00 0.00 0.00 39 1017.1
20260906142204 26 157 4.8 16.1 0.00 0.00 0.00 39 1017.2
20260906141204 26 216 3.2 14.5 0.00 0.00 0.00 39 1017.2
20260906140204 27 206 3.2 11.3 0.00 0.00 0.00 39 1017.2
20260906135705 27 90 3.2 14.5 0.00 0.00 0.00 38 1017.2
20260906134704 27 99 4.8 11.3 0.00 0.00 0.00 37 1017.4
20260906134204 27 75 4.8 11.3 0.00 0.00 0.00 38 1017.5
20260906133705 27 182 4.8 14.5 0.00 0.00 0.00 38 1017.5
20260906133204 27 186 4.8 14.5 0.00 0.00 0.00 38 1017.7
20260906132205 26 195 6.4 14.5 0.00 0.00 0.00 38 1017.8
20260906131704 26 121 4.8 14.5 0.00 0.00 0.00 38 1018.0
20260906131204 26 114 4.8 14.5 0.00 0.00 0.00 38 1017.8
20260906130705 26 152 4.8 16.1 0.00 0.00 0.00 39 1017.9
20260906130204 26 173 4.8 16.1 0.00 0.00 0.00 41 1017.9
20260906125705 26 175 3.2 16.1 0.00 0.00 0.00 41 1017.9
20260906125204 26 200 6.4 14.5 0.00 0.00 0.00 41 1018.0
20260906124704 26 202 4.8 14.5 0.00 0.00 0.00 41 1018.0
20260906124204 26 251 1.6 14.5 0.00 0.00 0.00 41 1018.1
20260906123204 26 207 3.2 20.9 0.00 0.00 0.00 41 1018.2
20260906122704 26 221 3.2 20.9 0.00 0.00 0.00 41 1018.2
20260906122204 26 86 4.8 20.9 0.00 0.00 0.00 40 1018.2
20260906121205 26 149 4.8 20.9 0.00 0.00 0.00 40 1018.3
20260906120704 26 114 4.8 9.7 0.00 0.00 0.00 40 1018.4
20260906120204 26 179 3.2 9.7 0.00 0.00 0.00 40 1018.4
20260906115704 26 183 1.6 11.3 0.00 0.00 0.00 42 1018.6
20260906115205 26 171 3.2 11.3 0.00 0.00 0.00 44 1018.7
20260906114704 25 176 1.6 11.3 0.00 0.00 0.00 45 1018.6
20260906114204 25 93 4.8 11.3 0.00 0.00 0.00 45 1018.8
20260906113704 25 171 3.2 9.7 0.00 0.00 0.00 44 1018.8
20260906112704 25 199 3.2 16.1 0.00 0.00 0.00 45 1018.8
20260906112204 25 107 4.8 16.1 0.00 0.00 0.00 45 1018.7
20260906111705 25 164 4.8 16.1 0.00 0.00 0.00 46 1018.9
20260906111204 25 175 3.2 16.1 0.00 0.00 0.00 48 1018.9
20260906110704 25 247 3.2 20.9 0.00 0.00 0.00 50 1019.0
20260906110204 24 69 4.8 20.9 0.00 0.00 0.00 50 1019.2
20260906105704 24 130 3.2 20.9 0.00 0.00 0.00 51 1019.2
20260906104704 24 56 4.8 20.9 0.00 0.00 0.00 52 1019.2
20260906104205 23 128 3.2 20.9 0.00 0.00 0.00 53 1019.2
20260906103204 23 303 4.8 17.7 0.00 0.00 0.00 54 1019.3
20260906102704 23 185 4.8 17.7 0.00 0.00 0.00 54 1019.3
20260906102204 23 90 4.8 17.7 0.00 0.00 0.00 54 1019.4
20260906101204 23 76 4.8 9.7 0.00 0.00 0.00 55 1019.4
20260906100704 23 180 1.6 9.7 0.00 0.00 0.00 57 1019.4
20260906100204 23 117 3.2 14.5 0.00 0.00 0.00 57 1019.5
20260906095704 22 228 3.2 14.5 0.00 0.00 0.00 57 1019.5
20260906095203 22 203 3.2 14.5 0.00 0.00 0.00 59 1019.6
20260906094204 22 121 1.6 14.5 0.00 0.00 0.00 62 1019.8
20260906093704 21 89 3.2 14.5 0.00 0.00 0.00 63 1019.7
20260906092704 21 97 4.8 9.7 0.00 0.00 0.00 64 1019.9
20260906091705 21 104 3.2 14.5 0.00 0.00 0.00 66 1019.9
20260906091204 20 113 3.2 14.5 0.00 0.00 0.00 67 1019.9
20260906090705 20 71 3.2 14.5 0.00 0.00 0.00 67 1019.9
20260906085204 20 94 3.2 9.7 0.00 0.00 0.00 72 1020.0
20260906084704 19 97 1.6 9.7 0.00 0.00 0.00 73 1020.1
20260906084204 19 83 4.8 8.0 0.00 0.00 0.00 72 1020.1
20260906083704 19 140 3.2 8.0 0.00 0.00 0.00 72 1020.1
20260906083205 19 149 1.6 6.4 0.00 0.00 0.00 73 1020.2
20260906082704 18 128 3.2 9.7 0.00 0.00 0.00 75 1020.4
20260906081704 18 102 3.2 9.7 0.00 0.00 0.00 75 1020.4
20260906081204 18 99 1.6 9.7 0.00 0.00 0.00 75 1020.4
20260906080709 18 100 0.0 9.7 0.00 0.00 0.00 76 1020.4
20260906075704 18 137 3.2 8.0 0.00 0.00 0.00 76 1020.3
20260906075206 18 116 1.6 8.0 0.00 0.00 0.00 76 1020.3
20260906074705 17 111 1.6 8.0 0.00 0.00 0.00 77 1020.4
20260906073704 17 106 3.2 4.8 0.00 0.00 0.00 77 1020.4
20260906073204 16 158 1.6 4.8 0.00 0.00 0.00 77 1020.5
20260906072704 16 159 0.0 4.8 0.00 0.00 0.00 78 1020.5
20260906070208 16 180 0.0 3.2 0.00 0.00 0.00 78 1020.8
20260906065704 15 180 0.0 3.2 0.00 0.00 0.00 78 1020.9
20260906064707 15 180 0.0 3.2 0.00 0.00 0.00 78 1020.9
20260906064204 15 180 0.0 3.2 0.00 0.00 0.00 78 1020.8
20260906063708 15 180 1.6 3.2 0.00 0.00 0.00 78 1021.0
20260906063204 15 180 0.0 3.2 0.00 0.00 0.00 78 1021.1
20260906062203 15 180 0.0 3.2 0.00 0.00 0.00 78 1021.0
20260906061705 15 180 0.0 1.6 0.00 0.00 0.00 78 1020.8
20260906061204 15 180 0.0 1.6 0.00 0.00 0.00 78 1020.8
20260906060704 15 180 0.0 1.6 0.00 0.00 0.00 78 1020.8
20260906060204 15 180 0.0 3.2 0.00 0.00 0.00 78 1020.8
20260906055704 15 180 0.0 3.2 0.00 0.00 0.00 78 1020.9
20260906055204 15 180 0.0 4.8 0.00 0.00 0.00 78 1021.1
20260906054705 15 180 1.6 4.8 0.00 0.00 0.00 78 1021.1
20260906054204 15 180 1.6 4.8 0.00 0.00 0.00 78 1021.0
20260906053704 15 182 0.0 3.2 0.00 0.00 0.00 78 1020.9
20260906053204 15 182 0.0 4.8 0.00 0.00 0.00 78 1021.0
20260906052704 15 182 0.0 4.8 0.00 0.00 0.00 78 1021.1
20260906052203 15 182 1.6 4.8 0.00 0.00 0.00 78 1021.1
20260906051704 15 182 1.6 4.8 0.00 0.00 0.00 78 1021.2
20260906051204 14 185 1.6 3.2 0.00 0.00 0.00 78 1021.1
20260906050704 14 185 0.0 3.2 0.00 0.00 0.00 78 1021.2
20260906050204 14 185 0.0 3.2 0.00 0.00 0.00 78 1021.1
20260906045712 13 185 0.0 3.2 0.00 0.00 0.00 78 1021.1
20260906044204 13 185 0.0 0.0 0.00 0.00 0.00 78 1021.1
20260906043704 13 185 0.0 0.0 0.00 0.00 0.00 78 1021.0
20260906042704 13 185 0.0 0.0 0.00 0.00 0.00 78 1021.1
20260906041203 13 185 0.0 0.0 0.00 0.00 0.00 78 1021.2
20260906040204 13 185 0.0 0.0 0.00 0.00 0.00 78 1021.2
20260906035704 13 185 0.0 0.0 0.00 0.00 0.00 78 1021.3
20260906035204 13 185 0.0 0.0 0.00 0.00 0.00 78 1021.2
20260906033704 13 185 0.0 0.0 0.00 0.00 0.00 78 1021.2
20260906033204 13 185 0.0 0.0 0.00 0.00 0.00 78 1021.1
20260906032704 13 185 0.0 0.0 0.00 0.00 0.00 78 1021.2
20260906031710 13 185 0.0 0.0 0.00 0.00 0.00 78 1021.3
20260906031204 13 185 0.0 0.0 0.00 0.00 0.00 78 1021.6
20260906030704 13 185 0.0 0.0 0.00 0.00 0.00 78 1021.6
20260906030204 13 185 0.0 0.0 0.00 0.00 0.00 78 1021.6
20260906025704 14 185 0.0 0.0 0.00 0.00 0.00 78 1021.7
20260906024203 14 185 0.0 0.0 0.00 0.00 0.00 77 1021.9
20260906023706 14 185 0.0 0.0 0.00 0.00 0.00 78 1022.1
20260906023204 14 185 0.0 0.0 0.00 0.00 0.00 78 1022.1
20260906022204 14 185 0.0 1.6 0.00 0.00 0.00 78 1022.2
20260906021711 14 185 0.0 1.6 0.00 0.00 0.00 78 1022.2
20260906021204 14 185 0.0 1.6 0.00 0.00 0.00 77 1022.3
20260906020704 14 185 0.0 0.0 0.00 0.00 0.00 77 1022.3
20260906015705 14 185 0.0 0.0 0.00 0.00 0.00 77 1022.3
20260906015205 15 185 0.0 1.6 0.00 0.00 0.00 77 1022.3
20260906014704 15 185 0.0 1.6 0.00 0.00 0.00 77 1022.2
20260906013704 15 185 0.0 1.6 0.00 0.00 0.00 77 1022.4
20260906013205 15 185 0.0 0.0 0.00 0.00 0.00 77 1022.4
20260906012704 15 185 0.0 0.0 0.00 0.00 0.00 76 1022.5
20260906012205 15 185 0.0 0.0 0.00 0.00 0.00 76 1022.5
20260906011704 15 185 0.0 0.0 0.00 0.00 0.00 76 1022.4
20260906011204 15 185 0.0 0.0 0.00 0.00 0.00 76 1022.4
20260906010704 15 185 0.0 0.0 0.00 0.00 0.00 76 1022.4
20260906010204 15 185 0.0 0.0 0.00 0.00 0.00 76 1022.6
20260906005704 15 185 0.0 1.6 0.00 0.00 0.00 75 1022.5
20260906005204 15 185 0.0 1.6 0.00 0.00 0.00 76 1022.5
20260906004704 15 185 0.0 1.6 0.00 0.00 0.00 76 1022.6
20260906004204 15 185 0.0 1.6 0.00 0.00 0.00 76 1022.5
20260906003704 15 185 0.0 1.6 0.00 0.00 0.00 76 1022.6
20260906003205 15 185 0.0 1.6 0.00 0.00 0.00 76 1022.6
20260906002704 15 185 0.0 1.6 0.00 0.00 0.00 76 1022.6
20260906002204 15 185 0.0 1.6 0.00 0.00 0.00 76 1022.7
20260906001204 15 185 0.0 1.6 0.00 0.00 0.00 76 1022.8
20260906000704 15 185 0.0 1.6 0.00 0.00 0.00 76 1022.9
20260905235205 15 185 0.0 0.0 0.00 0.00 0.00 76 1022.6
20260905234204 15 185 0.0 0.0 0.00 0.00 0.00 75 1022.8
20260905233206 15 185 0.0 0.0 0.00 0.00 0.00 75 1022.7
20260905232205 16 185 0.0 1.6 0.00 0.00 0.00 74 1022.7
20260905231204 16 185 0.0 3.2 0.00 0.00 0.00 74 1022.7
20260905230705 16 185 0.0 3.2 0.00 0.00 0.00 74 1022.7
20260905230205 16 185 0.0 1.6 0.00 0.00 0.00 74 1022.7
20260905224703 16 185 0.0 1.6 0.00 0.00 0.00 74 1022.9
20260905224204 16 185 0.0 1.6 0.00 0.00 0.00 74 1022.8
20260905223704 16 185 0.0 1.6 0.00 0.00 0.00 73 1022.8
20260905223204 16 185 0.0 1.6 0.00 0.00 0.00 73 1022.7
20260905222704 16 185 0.0 1.6 0.00 0.00 0.00 73 1022.6
20260905222205 16 185 0.0 4.8 0.00 0.00 0.00 73 1022.6
20260905221205 16 185 0.0 4.8 0.00 0.00 0.00 73 1022.7
20260905220714 16 185 1.6 3.2 0.00 0.00 0.00 73 1022.7
20260905220205 16 183 0.0 3.2 0.00 0.00 0.00 73 1022.8
20260905215205 16 183 0.0 1.6 0.00 0.00 0.00 72 1022.7
20260905214709 16 183 0.0 1.6 0.00 0.00 0.00 72 1022.6
20260905214204 16 183 0.0 0.0 0.00 0.00 0.00 71 1022.5
20260905212704 17 183 0.0 3.2 0.00 0.00 0.00 71 1022.4
20260905212209 17 183 0.0 3.2 0.00 0.00 0.00 71 1022.4
20260905211704 17 183 0.0 1.6 0.00 0.00 0.00 71 1022.5
20260905211233 17 183 0.0 1.6 0.00 0.00 0.00 70 1022.4
20260905210204 17 183 0.0 6.4 0.00 0.00 0.00 70 1022.5
20260905205704 17 183 0.0 6.4 0.00 0.00 0.00 69 1022.5
20260905205205 17 183 1.6 3.2 0.00 0.00 0.00 69 1022.5
20260905204704 17 189 0.0 3.2 0.00 0.00 0.00 69 1022.4
20260905204205 17 189 0.0 3.2 0.00 0.00 0.00 68 1022.3
20260905203704 17 189 0.0 4.8 0.00 0.00 0.00 68 1022.3
20260905203204 17 189 0.0 4.8 0.00 0.00 0.00 68 1022.4
20260905202703 17 189 0.0 3.2 0.00 0.00 0.00 67 1022.4
20260905202204 18 189 0.0 3.2 0.00 0.00 0.00 67 1022.3
20260905201704 18 189 0.0 3.2 0.00 0.00 0.00 67 1022.4
20260905201204 18 189 0.0 3.2 0.00 0.00 0.00 66 1022.4
20260905200704 18 189 0.0 6.4 0.00 0.00 0.00 66 1022.4
20260905200204 18 188 0.0 6.4 0.00 0.00 0.00 66 1022.4
20260905195705 18 188 0.0 6.4 0.00 0.00 0.00 65 1022.5
20260905195204 18 188 1.6 4.8 0.00 0.00 0.00 65 1022.4
20260905194704 18 195 0.0 6.4 0.00 0.00 0.00 64 1022.5
20260905194204 18 162 0.0 6.4 0.00 0.00 0.00 64 1022.4
20260905193205 19 162 0.0 6.4 0.00 0.00 0.00 62 1022.3
20260905192706 19 148 0.0 6.4 0.00 0.00 0.00 62 1022.2
20260905192204 19 147 1.6 6.4 0.00 0.00 0.00 61 1022.1
20260905191704 19 141 1.6 4.8 0.00 0.00 0.00 60 1022.1
20260905191204 20 235 0.0 4.8 0.00 0.00 0.00 59 1022.0
20260905190204 20 238 0.0 1.6 0.00 0.00 0.00 55 1021.9
20260905185705 20 241 0.0 0.0 0.00 0.00 0.00 52 1021.9
20260905185203 20 241 0.0 0.0 0.00 0.00 0.00 50 1021.7
20260905184705 20 241 0.0 1.6 0.00 0.00 0.00 49 1021.7
20260905184204 21 241 0.0 1.6 0.00 0.00 0.00 49 1021.6
20260905183704 21 241 0.0 1.6 0.00 0.00 0.00 48 1021.6
20260905183204 21 241 0.0 1.6 0.00 0.00 0.00 48 1021.7
20260905182704 21 241 0.0 3.2 0.00 0.00 0.00 47 1021.7
20260905182203 21 241 0.0 3.2 0.00 0.00 0.00 47 1021.7
20260905181704 21 241 0.0 4.8 0.00 0.00 0.00 46 1021.7
20260905181204 22 241 1.6 4.8 0.00 0.00 0.00 46 1021.6
20260905180704 22 241 1.6 4.8 0.00 0.00 0.00 45 1021.7
20260905180205 22 241 0.0 4.8 0.00 0.00 0.00 44 1021.7
20260905175704 22 241 1.6 4.8 0.00 0.00 0.00 43 1021.6
20260905174204 23 241 1.6 8.0 0.00 0.00 0.00 43 1021.4
20260905172704 23 241 1.6 4.8 0.00 0.00 0.00 42 1021.4
20260905172205 23 241 1.6 4.8 0.00 0.00 0.00 42 1021.5
20260905171704 23 241 3.2 9.7 0.00 0.00 0.00 42 1021.6
20260905171204 23 240 0.0 9.7 0.00 0.00 0.00 42 1021.6
20260905170704 23 240 1.6 9.7 0.00 0.00 0.00 42 1021.6
20260905165204 23 228 3.2 6.4 0.00 0.00 0.00 42 1021.5
20260905164705 23 189 1.6 6.4 0.00 0.00 0.00 42 1021.6
20260905164204 23 176 1.6 8.0 0.00 0.00 0.00 42 1021.6